Year,Month,Day,Hour,Minute,Value (Times are PST for temperature in C)
2017,08,08,00,00,15.10
2017,08,08,00,01,15.10
2017,08,08,00,02,15.20
2017,08,08,00,03,15.20
2017,08,08,00,04,15.30
2017,08,08,00,05,15.30
2017,08,08,00,06,15.30
2017,08,08,00,07,15.30
2017,08,08,00,08,15.30
2017,08,08,00,09,15.30
2017,08,08,00,10,15.30
2017,08,08,00,11,15.30
2017,08,08,00,12,15.30
2017,08,08,00,13,15.30
2017,08,08,00,14,15.30
2017,08,08,00,15,15.30
2017,08,08,00,16,15.30
2017,08,08,00,17,15.30
2017,08,08,00,18,15.40
2017,08,08,00,19,15.40
2017,08,08,00,20,15.40
2017,08,08,00,21,15.50
2017,08,08,00,22,15.50
2017,08,08,00,23,15.60
2017,08,08,00,24,15.60
2017,08,08,00,25,15.60
2017,08,08,00,26,15.70
2017,08,08,00,27,15.70
2017,08,08,00,28,15.70
2017,08,08,00,29,15.70
2017,08,08,00,30,15.80
2017,08,08,00,31,15.80
2017,08,08,00,32,15.80
2017,08,08,00,33,15.80
2017,08,08,00,34,15.80
2017,08,08,00,35,15.80
2017,08,08,00,36,15.80
2017,08,08,00,37,15.80
2017,08,08,00,38,15.80
2017,08,08,00,39,15.80
2017,08,08,00,40,15.80
2017,08,08,00,41,15.80
2017,08,08,00,42,15.80
2017,08,08,00,43,15.80
2017,08,08,00,44,15.80
2017,08,08,00,45,15.80
2017,08,08,00,46,15.80
2017,08,08,00,47,15.80
2017,08,08,00,48,15.80
2017,08,08,00,49,15.80
2017,08,08,00,50,15.80
2017,08,08,00,51,15.80
2017,08,08,00,52,15.80
2017,08,08,00,53,15.80
2017,08,08,00,54,15.70
2017,08,08,00,55,15.70
2017,08,08,00,56,15.70
2017,08,08,00,57,15.70
2017,08,08,00,58,15.70
2017,08,08,00,59,15.70
2017,08,08,01,00,15.70
2017,08,08,01,01,15.70
2017,08,08,01,02,15.70
2017,08,08,01,03,15.70
2017,08,08,01,04,15.70
2017,08,08,01,05,15.70
2017,08,08,01,06,15.70
2017,08,08,01,07,15.70
2017,08,08,01,08,15.70
2017,08,08,01,09,15.70
2017,08,08,01,10,15.70
2017,08,08,01,11,15.60
2017,08,08,01,12,15.60
2017,08,08,01,13,15.60
2017,08,08,01,14,15.60
2017,08,08,01,15,15.60
2017,08,08,01,16,15.60
2017,08,08,01,17,15.60
2017,08,08,01,18,15.60
2017,08,08,01,19,15.60
2017,08,08,01,20,15.60
2017,08,08,01,21,15.60
2017,08,08,01,22,15.60
2017,08,08,01,23,15.60
2017,08,08,01,24,15.60
2017,08,08,01,25,15.60
2017,08,08,01,26,15.60
2017,08,08,01,27,15.60
2017,08,08,01,28,15.60
2017,08,08,01,29,15.60
2017,08,08,01,30,15.60
2017,08,08,01,31,15.60
2017,08,08,01,32,15.60
2017,08,08,01,33,15.50
2017,08,08,01,34,15.50
2017,08,08,01,35,15.50
2017,08,08,01,36,15.50
2017,08,08,01,37,15.50
2017,08,08,01,38,15.50
2017,08,08,01,39,15.50
2017,08,08,01,40,15.50
2017,08,08,01,41,15.50
2017,08,08,01,42,15.50
2017,08,08,01,43,15.50
2017,08,08,01,44,15.50
2017,08,08,01,45,15.40
2017,08,08,01,46,15.50
2017,08,08,01,47,15.40
2017,08,08,01,48,15.40
2017,08,08,01,49,15.40
2017,08,08,01,50,15.40
2017,08,08,01,51,15.40
2017,08,08,01,52,15.40
2017,08,08,01,53,15.40
2017,08,08,01,54,15.40
2017,08,08,01,55,15.30
2017,08,08,01,56,15.30
2017,08,08,01,57,15.30
2017,08,08,01,58,15.30
2017,08,08,01,59,15.30
2017,08,08,02,00,15.30
2017,08,08,02,01,15.30
2017,08,08,02,02,15.30
2017,08,08,02,03,15.30
2017,08,08,02,04,15.30
2017,08,08,02,05,15.30
2017,08,08,02,06,15.30
2017,08,08,02,07,15.30
2017,08,08,02,08,15.30
2017,08,08,02,09,15.30
2017,08,08,02,10,15.30
2017,08,08,02,11,15.30
2017,08,08,02,12,15.30
2017,08,08,02,13,15.30
2017,08,08,02,14,15.20
2017,08,08,02,15,15.20
2017,08,08,02,16,15.20
2017,08,08,02,17,15.20
2017,08,08,02,18,15.20
2017,08,08,02,19,15.20
2017,08,08,02,20,15.20
2017,08,08,02,21,15.20
2017,08,08,02,22,15.20
2017,08,08,02,23,15.20
2017,08,08,02,24,15.20
2017,08,08,02,25,15.20
2017,08,08,02,26,15.20
2017,08,08,02,27,15.20
2017,08,08,02,28,15.20
2017,08,08,02,29,15.20
2017,08,08,02,30,15.20
2017,08,08,02,31,15.20
2017,08,08,02,32,15.20
2017,08,08,02,33,15.20
2017,08,08,02,34,15.20
2017,08,08,02,35,15.20
2017,08,08,02,36,15.20
2017,08,08,02,37,15.20
2017,08,08,02,38,15.20
2017,08,08,02,39,15.20
2017,08,08,02,40,15.20
2017,08,08,02,41,15.20
2017,08,08,02,42,15.20
2017,08,08,02,43,15.20
2017,08,08,02,44,15.20
2017,08,08,02,45,15.20
2017,08,08,02,46,15.20
2017,08,08,02,47,15.20
2017,08,08,02,48,15.20
2017,08,08,02,49,15.20
2017,08,08,02,50,15.20
2017,08,08,02,51,15.20
2017,08,08,02,52,15.20
2017,08,08,02,53,15.20
2017,08,08,02,54,15.20
2017,08,08,02,55,15.20
2017,08,08,02,56,15.20
2017,08,08,02,57,15.20
2017,08,08,02,58,15.20
2017,08,08,02,59,15.20
2017,08,08,03,00,15.10
2017,08,08,03,01,15.10
2017,08,08,03,02,15.10
2017,08,08,03,03,15.10
2017,08,08,03,04,15.10
2017,08,08,03,05,15.10
2017,08,08,03,06,15.10
2017,08,08,03,07,15.10
2017,08,08,03,08,15.10
2017,08,08,03,09,15.10
2017,08,08,03,10,15.10
2017,08,08,03,11,15.10
2017,08,08,03,12,15.10
2017,08,08,03,13,15.10
2017,08,08,03,14,15.10
2017,08,08,03,15,15.10
2017,08,08,03,16,15.10
2017,08,08,03,17,15.10
2017,08,08,03,18,15.10
2017,08,08,03,19,15.10
2017,08,08,03,20,15.10
2017,08,08,03,21,15.10
2017,08,08,03,22,15.00
2017,08,08,03,23,15.00
2017,08,08,03,24,15.00
2017,08,08,03,25,15.00
2017,08,08,03,26,15.00
2017,08,08,03,27,15.00
2017,08,08,03,28,14.90
2017,08,08,03,29,14.90
2017,08,08,03,30,14.90
2017,08,08,03,31,14.90
2017,08,08,03,32,14.90
2017,08,08,03,33,14.90
2017,08,08,03,34,14.80
2017,08,08,03,35,14.80
2017,08,08,03,36,14.80
2017,08,08,03,37,14.80
2017,08,08,03,38,14.80
2017,08,08,03,39,14.80
2017,08,08,03,40,14.80
2017,08,08,03,41,14.80
2017,08,08,03,42,14.80
2017,08,08,03,43,14.70
2017,08,08,03,44,14.70
2017,08,08,03,45,14.70
2017,08,08,03,46,14.70
2017,08,08,03,47,14.70
2017,08,08,03,48,14.60
2017,08,08,03,49,14.60
2017,08,08,03,50,14.60
2017,08,08,03,51,14.60
2017,08,08,03,52,14.60
2017,08,08,03,53,14.60
2017,08,08,03,54,14.60
2017,08,08,03,55,14.60
2017,08,08,03,56,14.60
2017,08,08,03,57,14.60
2017,08,08,03,58,14.60
2017,08,08,03,59,14.60
2017,08,08,04,00,14.60
2017,08,08,04,01,14.60
2017,08,08,04,02,14.50
2017,08,08,04,03,14.50
2017,08,08,04,04,14.50
2017,08,08,04,05,14.50
2017,08,08,04,06,14.50
2017,08,08,04,07,14.50
2017,08,08,04,08,14.50
2017,08,08,04,09,14.50
2017,08,08,04,10,14.40
2017,08,08,04,11,14.40
2017,08,08,04,12,14.40
2017,08,08,04,13,14.40
2017,08,08,04,14,14.40
2017,08,08,04,15,14.40
2017,08,08,04,16,14.40
2017,08,08,04,17,14.40
2017,08,08,04,18,14.40
2017,08,08,04,19,14.40
2017,08,08,04,20,14.40
2017,08,08,04,21,14.30
2017,08,08,04,22,14.30
2017,08,08,04,23,14.30
2017,08,08,04,24,14.30
2017,08,08,04,25,14.30
2017,08,08,04,26,14.30
2017,08,08,04,27,14.30
2017,08,08,04,28,14.30
2017,08,08,04,29,14.30
2017,08,08,04,30,14.30
2017,08,08,04,31,14.30
2017,08,08,04,32,14.30
2017,08,08,04,33,14.20
2017,08,08,04,34,14.20
2017,08,08,04,35,14.20
2017,08,08,04,36,14.10
2017,08,08,04,37,14.10
2017,08,08,04,38,14.10
2017,08,08,04,39,14.00
2017,08,08,04,40,13.90
2017,08,08,04,41,13.90
2017,08,08,04,42,13.90
2017,08,08,04,43,13.80
2017,08,08,04,44,13.80
2017,08,08,04,45,13.80
2017,08,08,04,46,13.80
2017,08,08,04,47,13.70
2017,08,08,04,48,13.70
2017,08,08,04,49,13.70
2017,08,08,04,50,13.70
2017,08,08,04,51,13.60
2017,08,08,04,52,13.60
2017,08,08,04,53,13.60
2017,08,08,04,54,13.60
2017,08,08,04,55,13.60
2017,08,08,04,56,13.60
2017,08,08,04,57,13.50
2017,08,08,04,58,13.50
2017,08,08,04,59,13.50
2017,08,08,05,00,13.40
2017,08,08,05,01,13.40
2017,08,08,05,02,13.40
2017,08,08,05,03,13.40
2017,08,08,05,04,13.30
2017,08,08,05,05,13.30
2017,08,08,05,06,13.30
2017,08,08,05,07,13.30
2017,08,08,05,08,13.30
2017,08,08,05,09,13.30
2017,08,08,05,10,13.30
2017,08,08,05,11,13.30
2017,08,08,05,12,13.30
2017,08,08,05,13,13.30
2017,08,08,05,14,13.30
2017,08,08,05,15,13.30
2017,08,08,05,16,13.30
2017,08,08,05,17,13.20
2017,08,08,05,18,13.20
2017,08,08,05,19,13.20
2017,08,08,05,20,13.10
2017,08,08,05,21,13.10
2017,08,08,05,22,13.10
2017,08,08,05,23,13.10
2017,08,08,05,24,13.00
2017,08,08,05,25,13.00
2017,08,08,05,26,12.90
2017,08,08,05,27,12.90
2017,08,08,05,28,12.90
2017,08,08,05,29,12.90
2017,08,08,05,30,12.90
2017,08,08,05,31,12.90
2017,08,08,05,32,12.90
2017,08,08,05,33,12.90
2017,08,08,05,34,12.90
2017,08,08,05,35,12.90
2017,08,08,05,36,13.00
2017,08,08,05,37,13.10
2017,08,08,05,38,13.10
2017,08,08,05,39,13.10
2017,08,08,05,40,13.20
2017,08,08,05,41,13.20
2017,08,08,05,42,13.20
2017,08,08,05,43,13.10
2017,08,08,05,44,13.10
2017,08,08,05,45,13.10
2017,08,08,05,46,13.00
2017,08,08,05,47,13.00
2017,08,08,05,48,12.90
2017,08,08,05,49,12.80
2017,08,08,05,50,12.80
2017,08,08,05,51,12.80
2017,08,08,05,52,12.80
2017,08,08,05,53,12.70
2017,08,08,05,54,12.70
2017,08,08,05,55,12.70
2017,08,08,05,56,12.70
2017,08,08,05,57,12.60
2017,08,08,05,58,12.60
2017,08,08,05,59,12.60
2017,08,08,06,00,12.50
2017,08,08,06,01,12.50
2017,08,08,06,02,12.50
2017,08,08,06,03,12.40
2017,08,08,06,04,12.40
2017,08,08,06,05,12.40
2017,08,08,06,06,12.40
2017,08,08,06,07,12.40
2017,08,08,06,08,12.40
2017,08,08,06,09,12.40
2017,08,08,06,10,12.40
2017,08,08,06,11,12.40
2017,08,08,06,12,12.40
2017,08,08,06,13,12.40
2017,08,08,06,14,12.40
2017,08,08,06,15,12.30
2017,08,08,06,16,12.30
2017,08,08,06,17,12.30
2017,08,08,06,18,12.30
2017,08,08,06,19,12.30
2017,08,08,06,20,12.30
2017,08,08,06,21,12.30
2017,08,08,06,22,12.20
2017,08,08,06,23,12.20
2017,08,08,06,24,12.20
2017,08,08,06,25,12.20
2017,08,08,06,26,12.20
2017,08,08,06,27,12.10
2017,08,08,06,28,12.10
2017,08,08,06,29,12.10
2017,08,08,06,30,12.10
2017,08,08,06,31,12.10
2017,08,08,06,32,12.10
2017,08,08,06,33,12.10
2017,08,08,06,34,12.10
2017,08,08,06,35,12.10
2017,08,08,06,36,12.10
2017,08,08,06,37,12.10
2017,08,08,06,38,12.10
2017,08,08,06,39,12.10
2017,08,08,06,40,12.10
2017,08,08,06,41,12.10
2017,08,08,06,42,12.10
2017,08,08,06,43,12.10
2017,08,08,06,44,12.10
2017,08,08,06,45,12.10
2017,08,08,06,46,12.10
2017,08,08,06,47,12.10
2017,08,08,06,48,12.10
2017,08,08,06,49,12.10
2017,08,08,06,50,12.10
2017,08,08,06,51,12.20
2017,08,08,06,52,12.20
2017,08,08,06,53,12.20
2017,08,08,06,54,12.20
2017,08,08,06,55,12.20
2017,08,08,06,56,12.20
2017,08,08,06,57,12.20
2017,08,08,06,58,12.20
2017,08,08,06,59,12.20
2017,08,08,07,00,12.20
2017,08,08,07,01,12.20
2017,08,08,07,02,12.20
2017,08,08,07,03,12.30
2017,08,08,07,04,12.30
2017,08,08,07,05,12.30
2017,08,08,07,06,12.40
2017,08,08,07,07,12.40
2017,08,08,07,08,12.40
2017,08,08,07,09,12.30
2017,08,08,07,10,12.30
2017,08,08,07,11,12.30
2017,08,08,07,12,12.30
2017,08,08,07,13,12.30
2017,08,08,07,14,12.30
2017,08,08,07,15,12.30
2017,08,08,07,16,12.30
2017,08,08,07,17,12.40
2017,08,08,07,18,12.40
2017,08,08,07,19,12.40
2017,08,08,07,20,12.50
2017,08,08,07,21,12.50
2017,08,08,07,22,12.60
2017,08,08,07,23,12.60
2017,08,08,07,24,12.70
2017,08,08,07,25,12.70
2017,08,08,07,26,12.80
2017,08,08,07,27,12.80
2017,08,08,07,28,12.90
2017,08,08,07,29,12.90
2017,08,08,07,30,12.90
2017,08,08,07,31,12.90
2017,08,08,07,32,13.00
2017,08,08,07,33,13.00
2017,08,08,07,34,13.00
2017,08,08,07,35,13.10
2017,08,08,07,36,13.10
2017,08,08,07,37,13.10
2017,08,08,07,38,13.10
2017,08,08,07,39,13.20
2017,08,08,07,40,13.20
2017,08,08,07,41,13.20
2017,08,08,07,42,13.30
2017,08,08,07,43,13.30
2017,08,08,07,44,13.30
2017,08,08,07,45,13.40
2017,08,08,07,46,13.40
2017,08,08,07,47,13.40
2017,08,08,07,48,13.50
2017,08,08,07,49,13.50
2017,08,08,07,50,13.60
2017,08,08,07,51,13.60
2017,08,08,07,52,13.70
2017,08,08,07,53,13.70
2017,08,08,07,54,13.70
2017,08,08,07,55,13.80
2017,08,08,07,56,13.80
2017,08,08,07,57,13.80
2017,08,08,07,58,13.90
2017,08,08,07,59,13.90
2017,08,08,08,00,13.90
2017,08,08,08,01,14.00
2017,08,08,08,02,14.00
2017,08,08,08,03,14.10
2017,08,08,08,04,14.10
2017,08,08,08,05,14.10
2017,08,08,08,06,14.20
2017,08,08,08,07,14.20
2017,08,08,08,08,14.30
2017,08,08,08,09,14.30
2017,08,08,08,10,14.30
2017,08,08,08,11,14.30
2017,08,08,08,12,14.40
2017,08,08,08,13,14.40
2017,08,08,08,14,14.40
2017,08,08,08,15,14.40
2017,08,08,08,16,14.50
2017,08,08,08,17,14.50
2017,08,08,08,18,14.60
2017,08,08,08,19,14.60
2017,08,08,08,20,14.60
2017,08,08,08,21,14.70
2017,08,08,08,22,14.70
2017,08,08,08,23,14.70
2017,08,08,08,24,14.70
2017,08,08,08,25,14.70
2017,08,08,08,26,14.70
2017,08,08,08,27,14.70
2017,08,08,08,28,14.70
2017,08,08,08,29,14.70
2017,08,08,08,30,14.70
2017,08,08,08,31,14.70
2017,08,08,08,32,14.70
2017,08,08,08,33,14.70
2017,08,08,08,34,14.80
2017,08,08,08,35,14.80
2017,08,08,08,36,14.80
2017,08,08,08,37,14.90
2017,08,08,08,38,14.90
2017,08,08,08,39,14.90
2017,08,08,08,40,15.00
2017,08,08,08,41,15.00
2017,08,08,08,42,15.10
2017,08,08,08,43,15.10
2017,08,08,08,44,15.10
2017,08,08,08,45,15.10
2017,08,08,08,46,15.10
2017,08,08,08,47,15.00
2017,08,08,08,48,15.00
2017,08,08,08,49,15.00
2017,08,08,08,50,15.00
2017,08,08,08,51,14.90
2017,08,08,08,52,14.90
2017,08,08,08,53,14.90
2017,08,08,08,54,14.90
2017,08,08,08,55,14.90
2017,08,08,08,56,14.90
2017,08,08,08,57,14.90
2017,08,08,08,58,14.90
2017,08,08,08,59,14.90
2017,08,08,09,00,14.80
2017,08,08,09,01,14.80
2017,08,08,09,02,14.80
2017,08,08,09,03,14.80
2017,08,08,09,04,14.80
2017,08,08,09,05,14.80
2017,08,08,09,06,14.80
2017,08,08,09,07,14.80
2017,08,08,09,08,14.80
2017,08,08,09,09,14.80
2017,08,08,09,10,14.90
2017,08,08,09,11,14.90
2017,08,08,09,12,14.90
2017,08,08,09,13,14.90
2017,08,08,09,14,14.90
2017,08,08,09,15,14.90
2017,08,08,09,16,15.00
2017,08,08,09,17,15.00
2017,08,08,09,18,15.10
2017,08,08,09,19,15.10
2017,08,08,09,20,15.10
2017,08,08,09,21,15.10
2017,08,08,09,22,15.10
2017,08,08,09,23,15.10
2017,08,08,09,24,15.10
2017,08,08,09,25,15.00
2017,08,08,09,26,14.90
2017,08,08,09,27,14.90
2017,08,08,09,28,14.90
2017,08,08,09,29,14.80
2017,08,08,09,30,14.80
2017,08,08,09,31,14.80
2017,08,08,09,32,14.90
2017,08,08,09,33,14.90
2017,08,08,09,34,14.90
2017,08,08,09,35,15.00
2017,08,08,09,36,15.00
2017,08,08,09,37,15.10
2017,08,08,09,38,15.20
2017,08,08,09,39,15.20
2017,08,08,09,40,15.20
2017,08,08,09,41,15.20
2017,08,08,09,42,15.20
2017,08,08,09,43,15.20
2017,08,08,09,44,15.20
2017,08,08,09,45,15.30
2017,08,08,09,46,15.30
2017,08,08,09,47,15.30
2017,08,08,09,48,15.40
2017,08,08,09,49,15.40
2017,08,08,09,50,15.40
2017,08,08,09,51,15.40
2017,08,08,09,52,15.40
2017,08,08,09,53,15.40
2017,08,08,09,54,15.40
2017,08,08,09,55,15.40
2017,08,08,09,56,15.50
2017,08,08,09,57,15.50
2017,08,08,09,58,15.50
2017,08,08,09,59,15.60
2017,08,08,10,00,15.60
2017,08,08,10,01,15.60
2017,08,08,10,02,15.60
2017,08,08,10,03,15.60
2017,08,08,10,04,15.60
2017,08,08,10,05,15.60
2017,08,08,10,06,15.60
2017,08,08,10,07,15.60
2017,08,08,10,08,15.70
2017,08,08,10,09,15.70
2017,08,08,10,10,15.70
2017,08,08,10,11,15.70
2017,08,08,10,12,15.70
2017,08,08,10,13,15.70
2017,08,08,10,14,15.80
2017,08,08,10,15,15.80
2017,08,08,10,16,15.80
2017,08,08,10,17,15.80
2017,08,08,10,18,15.80
2017,08,08,10,19,15.80
2017,08,08,10,20,15.70
2017,08,08,10,21,15.70
2017,08,08,10,22,15.70
2017,08,08,10,23,15.70
2017,08,08,10,24,15.60
2017,08,08,10,25,15.60
2017,08,08,10,26,15.50
2017,08,08,10,27,15.50
2017,08,08,10,28,15.50
2017,08,08,10,29,15.50
2017,08,08,10,30,15.50
2017,08,08,10,31,15.50
2017,08,08,10,32,15.60
2017,08,08,10,33,15.60
2017,08,08,10,34,15.70
2017,08,08,10,35,15.70
2017,08,08,10,36,15.80
2017,08,08,10,37,15.80
2017,08,08,10,38,15.80
2017,08,08,10,39,15.80
2017,08,08,10,40,15.80
2017,08,08,10,41,15.80
2017,08,08,10,42,15.80
2017,08,08,10,43,15.80
2017,08,08,10,44,15.80
2017,08,08,10,45,15.80
2017,08,08,10,46,15.80
2017,08,08,10,47,15.80
2017,08,08,10,48,15.90
2017,08,08,10,49,15.90
2017,08,08,10,50,15.90
2017,08,08,10,51,15.90
2017,08,08,10,52,15.90
2017,08,08,10,53,15.90
2017,08,08,10,54,15.90
2017,08,08,10,55,15.90
2017,08,08,10,56,16.00
2017,08,08,10,57,16.00
2017,08,08,10,58,16.00
2017,08,08,10,59,16.10
2017,08,08,11,00,16.10
2017,08,08,11,01,16.10
2017,08,08,11,02,16.10
2017,08,08,11,03,16.20
2017,08,08,11,04,16.20
2017,08,08,11,05,16.30
2017,08,08,11,06,16.30
2017,08,08,11,07,16.40
2017,08,08,11,08,16.50
2017,08,08,11,09,16.50
2017,08,08,11,10,16.60
2017,08,08,11,11,16.70
2017,08,08,11,12,16.80
2017,08,08,11,13,16.80
2017,08,08,11,14,16.90
2017,08,08,11,15,16.90
2017,08,08,11,16,16.90
2017,08,08,11,17,16.90
2017,08,08,11,18,16.90
2017,08,08,11,19,16.90
2017,08,08,11,20,16.90
2017,08,08,11,21,17.00
2017,08,08,11,22,17.00
2017,08,08,11,23,17.10
2017,08,08,11,24,17.10
2017,08,08,11,25,17.20
2017,08,08,11,26,17.20
2017,08,08,11,27,17.30
2017,08,08,11,28,17.30
2017,08,08,11,29,17.30
2017,08,08,11,30,17.30
2017,08,08,11,31,17.40
2017,08,08,11,32,17.40
2017,08,08,11,33,17.40
2017,08,08,11,34,17.40
2017,08,08,11,35,17.50
2017,08,08,11,36,17.50
2017,08,08,11,37,17.50
2017,08,08,11,38,17.50
2017,08,08,11,39,17.50
2017,08,08,11,40,17.50
2017,08,08,11,41,17.60
2017,08,08,11,42,17.60
2017,08,08,11,43,17.60
2017,08,08,11,44,17.60
2017,08,08,11,45,17.70
2017,08,08,11,46,17.70
2017,08,08,11,47,17.80
2017,08,08,11,48,17.80
2017,08,08,11,49,17.80
2017,08,08,11,50,17.80
2017,08,08,11,51,17.80
2017,08,08,11,52,17.80
2017,08,08,11,53,17.80
2017,08,08,11,54,17.90
2017,08,08,11,55,17.90
2017,08,08,11,56,17.90
2017,08,08,11,57,18.00
2017,08,08,11,58,18.10
2017,08,08,11,59,18.10
2017,08,08,12,00,18.10
2017,08,08,12,01,18.10
2017,08,08,12,02,18.20
2017,08,08,12,03,18.30
2017,08,08,12,04,18.30
2017,08,08,12,05,18.40
2017,08,08,12,06,18.40
2017,08,08,12,07,18.50
2017,08,08,12,08,18.60
2017,08,08,12,09,18.70
2017,08,08,12,10,18.70
2017,08,08,12,11,18.70
2017,08,08,12,12,18.80
2017,08,08,12,13,18.80
2017,08,08,12,14,18.90
2017,08,08,12,15,19.00
2017,08,08,12,16,19.10
2017,08,08,12,17,19.10
2017,08,08,12,18,19.20
2017,08,08,12,19,19.20
2017,08,08,12,20,19.30
2017,08,08,12,21,19.30
2017,08,08,12,22,19.30
2017,08,08,12,23,19.30
2017,08,08,12,24,19.30
2017,08,08,12,25,19.30
2017,08,08,12,26,19.30
2017,08,08,12,27,19.30
2017,08,08,12,28,19.30
2017,08,08,12,29,19.30
2017,08,08,12,30,19.40
2017,08,08,12,31,19.40
2017,08,08,12,32,19.50
2017,08,08,12,33,19.60
2017,08,08,12,34,19.60
2017,08,08,12,35,19.60
2017,08,08,12,36,19.60
2017,08,08,12,37,19.60
2017,08,08,12,38,19.60
2017,08,08,12,39,19.60
2017,08,08,12,40,19.70
2017,08,08,12,41,19.70
2017,08,08,12,42,19.70
2017,08,08,12,43,19.70
2017,08,08,12,44,19.80
2017,08,08,12,45,19.80
2017,08,08,12,46,19.80
2017,08,08,12,47,19.80
2017,08,08,12,48,19.90
2017,08,08,12,49,20.00
2017,08,08,12,50,20.00
2017,08,08,12,51,20.00
2017,08,08,12,52,20.00
2017,08,08,12,53,20.00
2017,08,08,12,54,20.10
2017,08,08,12,55,20.10
2017,08,08,12,56,20.20
2017,08,08,12,57,20.30
2017,08,08,12,58,20.30
2017,08,08,12,59,20.40
2017,08,08,13,00,20.40
2017,08,08,13,01,20.50
2017,08,08,13,02,20.50
2017,08,08,13,03,20.60
2017,08,08,13,04,20.60
2017,08,08,13,05,20.70
2017,08,08,13,06,20.70
2017,08,08,13,07,20.70
2017,08,08,13,08,20.80
2017,08,08,13,09,20.80
2017,08,08,13,10,20.80
2017,08,08,13,11,20.90
2017,08,08,13,12,20.90
2017,08,08,13,13,21.00
2017,08,08,13,14,20.90
2017,08,08,13,15,20.90
2017,08,08,13,16,20.80
2017,08,08,13,17,20.80
2017,08,08,13,18,20.80
2017,08,08,13,19,20.80
2017,08,08,13,20,20.70
2017,08,08,13,21,20.70
2017,08,08,13,22,20.70
2017,08,08,13,23,20.60
2017,08,08,13,24,20.60
2017,08,08,13,25,20.60
2017,08,08,13,26,20.60
2017,08,08,13,27,20.60
2017,08,08,13,28,20.60
2017,08,08,13,29,20.60
2017,08,08,13,30,20.70
2017,08,08,13,31,20.70
2017,08,08,13,32,20.70
2017,08,08,13,33,20.80
2017,08,08,13,34,20.80
2017,08,08,13,35,20.90
2017,08,08,13,36,21.00
2017,08,08,13,37,21.00
2017,08,08,13,38,21.20
2017,08,08,13,39,21.30
2017,08,08,13,40,21.30
2017,08,08,13,41,21.40
2017,08,08,13,42,21.60
2017,08,08,13,43,21.70
2017,08,08,13,44,21.70
2017,08,08,13,45,21.70
2017,08,08,13,46,21.70
2017,08,08,13,47,21.70
2017,08,08,13,48,21.70
2017,08,08,13,49,21.70
2017,08,08,13,50,21.70
2017,08,08,13,51,21.70
2017,08,08,13,52,21.80
2017,08,08,13,53,21.80
2017,08,08,13,54,21.80
2017,08,08,13,55,21.90
2017,08,08,13,56,21.90
2017,08,08,13,57,22.00
2017,08,08,13,58,22.10
2017,08,08,13,59,22.20
2017,08,08,14,00,22.30
2017,08,08,14,01,22.30
2017,08,08,14,02,22.40
2017,08,08,14,03,22.50
2017,08,08,14,04,22.60
2017,08,08,14,05,22.60
2017,08,08,14,06,22.70
2017,08,08,14,07,22.70
2017,08,08,14,08,22.80
2017,08,08,14,09,22.80
2017,08,08,14,10,22.90
2017,08,08,14,11,23.00
2017,08,08,14,12,23.00
2017,08,08,14,13,23.10
2017,08,08,14,14,23.20
2017,08,08,14,15,23.30
2017,08,08,14,16,23.30
2017,08,08,14,17,23.30
2017,08,08,14,18,23.40
2017,08,08,14,19,23.40
2017,08,08,14,20,23.50
2017,08,08,14,21,23.60
2017,08,08,14,22,23.70
2017,08,08,14,23,23.80
2017,08,08,14,24,23.80
2017,08,08,14,25,23.80
2017,08,08,14,26,23.90
2017,08,08,14,27,23.90
2017,08,08,14,28,23.90
2017,08,08,14,29,23.90
2017,08,08,14,30,24.00
2017,08,08,14,31,24.00
2017,08,08,14,32,24.00
2017,08,08,14,33,23.90
2017,08,08,14,34,23.90
2017,08,08,14,35,23.80
2017,08,08,14,36,23.80
2017,08,08,14,37,23.80
2017,08,08,14,38,23.80
2017,08,08,14,39,23.90
2017,08,08,14,40,23.90
2017,08,08,14,41,24.00
2017,08,08,14,42,24.00
2017,08,08,14,43,24.10
2017,08,08,14,44,24.20
2017,08,08,14,45,24.20
2017,08,08,14,46,24.30
2017,08,08,14,47,24.30
2017,08,08,14,48,24.30
2017,08,08,14,49,24.40
2017,08,08,14,50,24.40
2017,08,08,14,51,24.50
2017,08,08,14,52,24.60
2017,08,08,14,53,24.70
2017,08,08,14,54,24.70
2017,08,08,14,55,24.80
2017,08,08,14,56,24.80
2017,08,08,14,57,24.80
2017,08,08,14,58,24.80
2017,08,08,14,59,24.80
2017,08,08,15,00,24.80
2017,08,08,15,01,24.80
2017,08,08,15,02,24.80
2017,08,08,15,03,24.90
2017,08,08,15,04,24.90
2017,08,08,15,05,24.90
2017,08,08,15,06,25.00
2017,08,08,15,07,25.10
2017,08,08,15,08,25.20
2017,08,08,15,09,25.30
2017,08,08,15,10,25.30
2017,08,08,15,11,25.40
2017,08,08,15,12,25.40
2017,08,08,15,13,25.40
2017,08,08,15,14,25.50
2017,08,08,15,15,25.50
2017,08,08,15,16,25.50
2017,08,08,15,17,25.60
2017,08,08,15,18,25.60
2017,08,08,15,19,25.70
2017,08,08,15,20,25.70
2017,08,08,15,21,25.80
2017,08,08,15,22,25.80
2017,08,08,15,23,25.80
2017,08,08,15,24,25.80
2017,08,08,15,25,25.80
2017,08,08,15,26,25.80
2017,08,08,15,27,25.80
2017,08,08,15,28,25.80
2017,08,08,15,29,25.90
2017,08,08,15,30,25.90
2017,08,08,15,31,26.00
2017,08,08,15,32,26.00
2017,08,08,15,33,26.10
2017,08,08,15,34,26.10
2017,08,08,15,35,26.10
2017,08,08,15,36,26.10
2017,08,08,15,37,26.10
2017,08,08,15,38,26.10
2017,08,08,15,39,26.10
2017,08,08,15,40,26.10
2017,08,08,15,41,26.10
2017,08,08,15,42,26.10
2017,08,08,15,43,26.20
2017,08,08,15,44,26.30
2017,08,08,15,45,26.30
2017,08,08,15,46,26.40
2017,08,08,15,47,26.40
2017,08,08,15,48,26.50
2017,08,08,15,49,26.50
2017,08,08,15,50,26.50
2017,08,08,15,51,26.50
2017,08,08,15,52,26.40
2017,08,08,15,53,26.50
2017,08,08,15,54,26.40
2017,08,08,15,55,26.40
2017,08,08,15,56,26.40
2017,08,08,15,57,26.40
2017,08,08,15,58,26.50
2017,08,08,15,59,26.50
2017,08,08,16,00,26.60
2017,08,08,16,01,26.60
2017,08,08,16,02,26.50
2017,08,08,16,03,26.50
2017,08,08,16,04,26.40
2017,08,08,16,05,26.40
2017,08,08,16,06,26.40
2017,08,08,16,07,26.40
2017,08,08,16,08,26.40
2017,08,08,16,09,26.40
2017,08,08,16,10,26.50
2017,08,08,16,11,26.60
2017,08,08,16,12,26.60
2017,08,08,16,13,26.60
2017,08,08,16,14,26.60
2017,08,08,16,15,26.60
2017,08,08,16,16,26.70
2017,08,08,16,17,26.70
2017,08,08,16,18,26.70
2017,08,08,16,19,26.70
2017,08,08,16,20,26.80
2017,08,08,16,21,26.90
2017,08,08,16,22,26.90
2017,08,08,16,23,27.00
2017,08,08,16,24,27.00
2017,08,08,16,25,27.10
2017,08,08,16,26,27.20
2017,08,08,16,27,27.20
2017,08,08,16,28,27.30
2017,08,08,16,29,27.40
2017,08,08,16,30,27.40
2017,08,08,16,31,27.40
2017,08,08,16,32,27.40
2017,08,08,16,33,27.40
2017,08,08,16,34,27.40
2017,08,08,16,35,27.40
2017,08,08,16,36,27.40
2017,08,08,16,37,27.40
2017,08,08,16,38,27.40
2017,08,08,16,39,27.40
2017,08,08,16,40,27.40
2017,08,08,16,41,27.40
2017,08,08,16,42,27.40
2017,08,08,16,43,27.40
2017,08,08,16,44,27.40
2017,08,08,16,45,27.40
2017,08,08,16,46,27.40
2017,08,08,16,47,27.40
2017,08,08,16,48,27.30
2017,08,08,16,49,27.30
2017,08,08,16,50,27.30
2017,08,08,16,51,27.20
2017,08,08,16,52,27.10
2017,08,08,16,53,27.00
2017,08,08,16,54,26.90
2017,08,08,16,55,26.90
2017,08,08,16,56,26.90
2017,08,08,16,57,26.80
2017,08,08,16,58,26.80
2017,08,08,16,59,26.80
2017,08,08,17,00,26.80
2017,08,08,17,01,26.70
2017,08,08,17,02,26.70
2017,08,08,17,03,26.70
2017,08,08,17,04,26.70
2017,08,08,17,05,26.80
2017,08,08,17,06,26.80
2017,08,08,17,07,26.80
2017,08,08,17,08,26.90
2017,08,08,17,09,26.90
2017,08,08,17,10,27.00
2017,08,08,17,11,27.00
2017,08,08,17,12,27.10
2017,08,08,17,13,27.10
2017,08,08,17,14,27.10
2017,08,08,17,15,27.10
2017,08,08,17,16,27.00
2017,08,08,17,17,26.80
2017,08,08,17,18,26.70
2017,08,08,17,19,26.60